User: anonymous   Login
Location: Unspecified
(0.0000°N, 0.0000°E)
Time: 04:19:24
(UTC+02:00)
Language:

Cosmos 1536 - Orbit

View from above orbital plane
View from above orbital plane
View from above satellite
View from above satellite

Ground track
Ground track

The orbit data is extracted from the following two-line orbital elements,

1 14699U 84013A   14294.43818032  .00004122  00000-0  30682-3 0  2145
2 14699 082.5286 187.2805 0014904 115.8507 244.4257 15.02621650667306
Epoch (UTC): 21 October 2014 10:30:58
Eccentricity: 0.0014904
inclination: 82.5286°
perigee height: 548 km
apogee height: 569 km
right ascension of ascending node: 187.2805°
argument of perigee: 115.8507°
revolutions per day: 15.02621650
mean anomaly at epoch: 244.4257°
orbit number at epoch: 66730

The dashed part of the orbit path shows where the satellite is in the earth's shadow,  

DLR